Year,Month,Day,Hour,Minute,Value (Times are PST for temperature in C)
2014,12,09,09,27,11.70
2014,12,09,09,28,11.70
2014,12,09,09,29,11.70
2014,12,09,09,30,11.70
2014,12,09,09,31,11.70
2014,12,09,09,32,11.70
2014,12,09,09,33,11.70
2014,12,09,09,34,11.70
2014,12,09,09,35,11.80
2014,12,09,09,36,11.80
2014,12,09,09,37,11.80
2014,12,09,09,38,11.80
2014,12,09,09,39,11.80
2014,12,09,09,40,11.80
2014,12,09,09,41,11.80
2014,12,09,09,42,11.80
2014,12,09,09,43,11.80
2014,12,09,09,44,11.70
2014,12,09,09,45,11.70
2014,12,09,09,46,11.70
2014,12,09,09,47,11.70
2014,12,09,09,48,11.70
2014,12,09,09,49,11.70
2014,12,09,09,50,11.70
2014,12,09,09,51,11.70
2014,12,09,09,52,11.70
2014,12,09,09,53,11.70
2014,12,09,09,54,11.70
2014,12,09,09,55,11.70
2014,12,09,09,56,11.70
2014,12,09,09,57,11.80
2014,12,09,09,58,11.80
2014,12,09,09,59,11.80
2014,12,09,10,00,11.80
2014,12,09,10,01,11.80
2014,12,09,10,02,11.80
2014,12,09,10,03,11.80
2014,12,09,14,32,11.80
2014,12,09,14,33,11.80
2014,12,09,14,34,11.80
2014,12,09,15,09,11.90
2014,12,09,15,10,11.80
2014,12,09,15,11,11.80
2014,12,09,15,12,11.80
2014,12,09,15,13,11.80
2014,12,09,15,14,11.70
2014,12,09,15,15,11.70
2014,12,09,15,16,11.70
2014,12,09,15,17,11.60
2014,12,09,15,18,11.60
2014,12,09,15,19,11.50
2014,12,09,15,20,11.40
2014,12,09,15,21,11.30
2014,12,09,15,22,11.30
2014,12,09,15,23,11.20
2014,12,09,15,24,11.10
2014,12,09,15,25,11.10
2014,12,09,15,26,11.10
2014,12,09,15,27,11.10
2014,12,09,15,28,11.10
2014,12,09,15,29,11.10
2014,12,09,15,30,11.10
2014,12,09,15,31,11.10
2014,12,09,15,32,11.10
2014,12,09,15,33,11.10
2014,12,09,15,34,11.10
2014,12,09,15,35,11.00
2014,12,09,15,36,10.90
2014,12,09,15,37,10.90
2014,12,09,15,38,10.90
2014,12,09,15,39,10.90
2014,12,09,15,40,10.90
2014,12,09,15,41,10.90
2014,12,09,15,42,10.90
2014,12,09,15,43,10.80
2014,12,09,15,44,10.80
2014,12,09,15,45,10.80
2014,12,09,15,46,10.80
2014,12,09,15,47,10.80
2014,12,09,15,48,10.80
2014,12,09,15,49,10.80
2014,12,09,15,50,10.80
2014,12,09,15,51,10.80
2014,12,09,15,52,10.70
2014,12,09,15,53,10.70
2014,12,09,15,54,10.70
2014,12,09,15,55,10.70
2014,12,09,15,56,10.70
2014,12,09,15,57,10.70
2014,12,09,15,58,10.70
2014,12,09,15,59,10.70
2014,12,09,16,00,10.70
2014,12,09,16,01,10.70
2014,12,09,16,02,10.70
2014,12,09,16,03,10.70
2014,12,09,16,04,10.60
2014,12,09,16,05,10.60
2014,12,09,16,06,10.60
2014,12,09,16,07,10.60
2014,12,09,16,08,10.50
2014,12,09,16,09,10.50
2014,12,09,16,10,10.50
2014,12,09,16,11,10.40
2014,12,09,16,12,10.40
2014,12,09,16,13,10.30
2014,12,09,16,14,10.20
2014,12,09,16,15,10.20
2014,12,09,16,16,10.20
2014,12,09,16,17,10.10
2014,12,09,16,18,10.00
2014,12,09,16,19,10.00
2014,12,09,16,20,9.90
2014,12,09,16,21,9.90
2014,12,09,16,22,9.90
2014,12,09,16,23,9.80
2014,12,09,16,24,9.80
2014,12,09,16,25,9.80
2014,12,09,16,26,9.80
2014,12,09,16,27,9.70
2014,12,09,16,28,9.70
2014,12,09,16,29,9.70
2014,12,09,16,30,9.60
2014,12,09,16,31,9.60
2014,12,09,16,32,9.60
2014,12,09,16,33,9.60
2014,12,09,16,34,9.60
2014,12,09,16,35,9.60
2014,12,09,16,36,9.50
2014,12,09,16,37,9.50
2014,12,09,16,38,9.50
2014,12,09,16,39,9.40
2014,12,09,16,40,9.40
2014,12,09,16,41,9.40
2014,12,09,16,42,9.40
2014,12,09,16,43,9.50
2014,12,09,16,44,9.50
2014,12,09,16,45,9.40
2014,12,09,16,46,9.40
2014,12,09,16,47,9.40
2014,12,09,16,48,9.40
2014,12,09,16,49,9.30
2014,12,09,16,50,9.30
2014,12,09,16,51,9.30
2014,12,09,16,52,9.30
2014,12,09,16,53,9.30
2014,12,09,16,54,9.40
2014,12,09,16,55,9.30
2014,12,09,16,56,9.30
2014,12,09,16,57,9.30
2014,12,09,16,58,9.40
2014,12,09,16,59,9.40
2014,12,09,17,00,9.40
2014,12,09,17,01,9.40
2014,12,09,17,02,9.40
2014,12,09,17,03,9.40
2014,12,09,17,04,9.40
2014,12,09,17,05,9.40
2014,12,09,17,06,9.40
2014,12,09,17,07,9.40
2014,12,09,17,08,9.40
2014,12,09,17,09,9.40
2014,12,09,17,10,9.40
2014,12,09,17,11,9.40
2014,12,09,17,12,9.40
2014,12,09,17,13,9.40
2014,12,09,17,14,9.40
2014,12,09,17,15,9.40
2014,12,09,17,16,9.40
2014,12,09,17,17,9.50
2014,12,09,17,18,9.60
2014,12,09,17,19,9.60
2014,12,09,17,20,9.60
2014,12,09,17,21,9.60
2014,12,09,17,22,9.60
2014,12,09,17,23,9.60
2014,12,09,17,24,9.60
2014,12,09,17,25,9.60
2014,12,09,17,26,9.70
2014,12,09,17,27,9.70
2014,12,09,17,28,9.70
2014,12,09,17,29,9.70
2014,12,09,17,30,9.70
2014,12,09,17,31,9.70
2014,12,09,17,32,9.70
2014,12,09,17,33,9.60
2014,12,09,17,34,9.70
2014,12,09,17,35,9.70
2014,12,09,17,36,9.70
2014,12,09,17,37,9.70
2014,12,09,17,38,9.70
2014,12,09,17,39,9.70
2014,12,09,17,40,9.70
2014,12,09,17,41,9.70
2014,12,09,17,42,9.70
2014,12,09,17,43,9.70
2014,12,09,17,44,9.70
2014,12,09,17,45,9.70
2014,12,09,17,46,9.70
2014,12,09,17,47,9.70
2014,12,09,17,48,9.70
2014,12,09,17,49,9.70
2014,12,09,17,50,9.70
2014,12,09,17,51,9.70
2014,12,09,17,52,9.70
2014,12,09,17,53,9.70
2014,12,09,17,54,9.70
2014,12,09,17,55,9.70
2014,12,09,17,56,9.70
2014,12,09,17,57,9.70
2014,12,09,17,58,9.70
2014,12,09,17,59,9.70
2014,12,09,18,00,9.70
2014,12,09,18,01,9.70
2014,12,09,18,02,9.70
2014,12,09,18,03,9.70
2014,12,09,18,04,9.70
2014,12,09,18,05,9.70
2014,12,09,18,06,9.70
2014,12,09,18,07,9.70
2014,12,09,18,08,9.70
2014,12,09,18,09,9.70
2014,12,09,18,10,9.70
2014,12,09,18,11,9.70
2014,12,09,18,12,9.70
2014,12,09,18,13,9.70
2014,12,09,18,14,9.70
2014,12,09,18,15,9.70
2014,12,09,18,16,9.70
2014,12,09,18,17,9.70
2014,12,09,18,18,9.70
2014,12,09,18,19,9.70
2014,12,09,18,20,9.60
2014,12,09,18,21,9.60
2014,12,09,18,22,9.60
2014,12,09,18,23,9.60
2014,12,09,18,24,9.60
2014,12,09,18,25,9.60
2014,12,09,18,26,9.60
2014,12,09,18,27,9.60
2014,12,09,18,28,9.60
2014,12,09,18,29,9.60
2014,12,09,18,30,9.60
2014,12,09,18,31,9.60
2014,12,09,18,32,9.60
2014,12,09,18,33,9.60
2014,12,09,18,34,9.60
2014,12,09,18,35,9.60
2014,12,09,18,36,9.60
2014,12,09,18,37,9.60
2014,12,09,18,38,9.50
2014,12,09,18,39,9.50
2014,12,09,18,40,9.50
2014,12,09,18,41,9.50
2014,12,09,18,42,9.50
2014,12,09,18,43,9.50
2014,12,09,18,44,9.50
2014,12,09,18,45,9.50
2014,12,09,18,46,9.50
2014,12,09,18,47,9.50
2014,12,09,18,48,9.50
2014,12,09,18,49,9.60
2014,12,09,18,50,9.60
2014,12,09,18,51,9.60
2014,12,09,18,52,9.60
2014,12,09,18,53,9.60
2014,12,09,18,54,9.60
2014,12,09,18,55,9.60
2014,12,09,18,56,9.60
2014,12,09,18,57,9.60
2014,12,09,18,58,9.60
2014,12,09,18,59,9.60
2014,12,09,19,00,9.60
2014,12,09,19,01,9.60
2014,12,09,19,02,9.60
2014,12,09,19,03,9.50
2014,12,09,19,04,9.50
2014,12,09,19,05,9.50
2014,12,09,19,06,9.50
2014,12,09,19,07,9.50
2014,12,09,19,08,9.50
2014,12,09,19,09,9.50
2014,12,09,19,10,9.50
2014,12,09,19,11,9.40
2014,12,09,19,12,9.40
2014,12,09,19,13,9.40
2014,12,09,19,14,9.40
2014,12,09,19,15,9.40
2014,12,09,19,16,9.40
2014,12,09,19,17,9.40
2014,12,09,19,18,9.40
2014,12,09,19,19,9.40
2014,12,09,19,20,9.40
2014,12,09,19,21,9.30
2014,12,09,19,22,9.30
2014,12,09,19,23,9.30
2014,12,09,19,24,9.30
2014,12,09,19,25,9.30
2014,12,09,19,26,9.30
2014,12,09,19,27,9.30
2014,12,09,19,28,9.30
2014,12,09,19,29,9.30
2014,12,09,19,30,9.30
2014,12,09,19,31,9.30
2014,12,09,19,32,9.30
2014,12,09,19,33,9.30
2014,12,09,19,34,9.30
2014,12,09,19,35,9.30
2014,12,09,19,36,9.30
2014,12,09,19,37,9.30
2014,12,09,19,38,9.30
2014,12,09,19,39,9.30
2014,12,09,19,40,9.30
2014,12,09,19,41,9.30
2014,12,09,19,42,9.30
2014,12,09,19,43,9.30
2014,12,09,19,44,9.30
2014,12,09,19,45,9.30
2014,12,09,19,46,9.30
2014,12,09,19,47,9.30
2014,12,09,19,48,9.30
2014,12,09,19,49,9.30
2014,12,09,19,50,9.20
2014,12,09,19,51,9.30
2014,12,09,19,52,9.30
2014,12,09,19,53,9.30
2014,12,09,19,54,9.30
2014,12,09,19,55,9.30
2014,12,09,19,56,9.30
2014,12,09,19,57,9.20
2014,12,09,19,58,9.20
2014,12,09,19,59,9.20
2014,12,09,20,00,9.20
2014,12,09,20,01,9.20
2014,12,09,20,02,9.20
2014,12,09,20,03,9.20
2014,12,09,20,04,9.20
2014,12,09,20,05,9.20
2014,12,09,20,06,9.30
2014,12,09,20,07,9.20
2014,12,09,20,08,9.20
2014,12,09,20,09,9.20
2014,12,09,20,10,9.20
2014,12,09,20,11,9.20
2014,12,09,20,12,9.20
2014,12,09,20,13,9.20
2014,12,09,20,14,9.20
2014,12,09,20,15,9.20
2014,12,09,20,16,9.20
2014,12,09,20,17,9.20
2014,12,09,20,18,9.20
2014,12,09,20,19,9.20
2014,12,09,20,20,9.20
2014,12,09,20,21,9.20
2014,12,09,20,22,9.20
2014,12,09,20,23,9.30
2014,12,09,20,24,9.30
2014,12,09,20,25,9.30
2014,12,09,20,26,9.30
2014,12,09,20,27,9.30
2014,12,09,20,28,9.30
2014,12,09,20,29,9.30
2014,12,09,20,30,9.40
2014,12,09,20,31,9.40
2014,12,09,20,32,9.50
2014,12,09,20,33,9.60
2014,12,09,20,34,9.60
2014,12,09,20,35,9.70
2014,12,09,20,36,9.70
2014,12,09,20,37,9.80
2014,12,09,20,38,9.80
2014,12,09,20,39,9.80
2014,12,09,20,40,9.80
2014,12,09,20,41,9.80
2014,12,09,20,42,9.80
2014,12,09,20,43,9.80
2014,12,09,20,44,9.80
2014,12,09,20,45,9.80
2014,12,09,20,46,9.90
2014,12,09,20,47,9.90
2014,12,09,20,48,9.90
2014,12,09,20,49,10.00
2014,12,09,20,50,10.00
2014,12,09,20,51,10.00
2014,12,09,20,52,10.00
2014,12,09,20,53,10.00
2014,12,09,20,54,9.90
2014,12,09,20,55,10.00
2014,12,09,20,56,10.00
2014,12,09,20,57,10.00
2014,12,09,20,58,10.00
2014,12,09,20,59,10.00
2014,12,09,21,00,10.00
2014,12,09,21,01,10.00
2014,12,09,21,02,9.90
2014,12,09,21,03,9.90
2014,12,09,21,04,9.90
2014,12,09,21,05,9.90
2014,12,09,21,06,9.90
2014,12,09,21,07,9.90
2014,12,09,21,08,9.80
2014,12,09,21,09,9.80
2014,12,09,21,10,9.80
2014,12,09,21,11,9.80
2014,12,09,21,12,9.80
2014,12,09,21,13,9.80
2014,12,09,21,14,9.70
2014,12,09,21,15,9.70
2014,12,09,21,16,9.70
2014,12,09,21,17,9.70
2014,12,09,21,18,9.70
2014,12,09,21,19,9.70
2014,12,09,21,20,9.70
2014,12,09,21,21,9.60
2014,12,09,21,22,9.60
2014,12,09,21,23,9.60
2014,12,09,21,24,9.60
2014,12,09,21,25,9.60
2014,12,09,21,26,9.60
2014,12,09,21,27,9.60
2014,12,09,21,28,9.60
2014,12,09,21,29,9.60
2014,12,09,21,30,9.60
2014,12,09,21,31,9.60
2014,12,09,21,32,9.60
2014,12,09,21,33,9.60
2014,12,09,21,34,9.60
2014,12,09,21,35,9.60
2014,12,09,21,36,9.60
2014,12,09,21,37,9.60
2014,12,09,21,38,9.60
2014,12,09,21,39,9.60
2014,12,09,21,40,9.60
2014,12,09,21,41,9.60
2014,12,09,21,42,9.60
2014,12,09,21,43,9.60
2014,12,09,21,44,9.60
2014,12,09,21,45,9.60
2014,12,09,21,46,9.60
2014,12,09,21,47,9.60
2014,12,09,21,48,9.60
2014,12,09,21,49,9.70
2014,12,09,21,50,9.70
2014,12,09,21,51,9.80
2014,12,09,21,52,9.80
2014,12,09,21,53,9.80
2014,12,09,21,54,9.80
2014,12,09,21,55,9.90
2014,12,09,21,56,9.90
2014,12,09,21,57,9.90
2014,12,09,21,58,10.00
2014,12,09,21,59,10.00
2014,12,09,22,00,10.00
2014,12,09,22,01,10.10
2014,12,09,22,02,10.10
2014,12,09,22,03,10.20
2014,12,09,22,04,10.20
2014,12,09,22,05,10.20
2014,12,09,22,06,10.30
2014,12,09,22,07,10.30
2014,12,09,22,08,10.20
2014,12,09,22,09,10.20
2014,12,09,22,10,10.20
2014,12,09,22,11,10.20
2014,12,09,22,12,10.20
2014,12,09,22,13,10.20
2014,12,09,22,14,10.20
2014,12,09,22,15,10.20
2014,12,09,22,16,10.20
2014,12,09,22,17,10.20
2014,12,09,22,18,10.20
2014,12,09,22,19,10.20
2014,12,09,22,20,10.30
2014,12,09,22,21,10.30
2014,12,09,22,22,10.30
2014,12,09,22,23,10.30
2014,12,09,22,24,10.30
2014,12,09,22,25,10.40
2014,12,09,22,26,10.40
2014,12,09,22,27,10.40
2014,12,09,22,28,10.40
2014,12,09,22,29,10.40
2014,12,09,22,30,10.40
2014,12,09,22,31,10.40
2014,12,09,22,32,10.40
2014,12,09,22,33,10.30
2014,12,09,22,34,10.40
2014,12,09,22,35,10.40
2014,12,09,22,36,10.40
2014,12,09,22,37,10.30
2014,12,09,22,38,10.40
2014,12,09,22,39,10.30
2014,12,09,22,40,10.30
2014,12,09,22,41,10.30
2014,12,09,22,42,10.40
2014,12,09,22,43,10.40
2014,12,09,22,44,10.40
2014,12,09,22,45,10.40
2014,12,09,22,46,10.40
2014,12,09,22,47,10.40
2014,12,09,22,48,10.40
2014,12,09,22,49,10.40
2014,12,09,22,50,10.40
2014,12,09,22,51,10.40
2014,12,09,22,52,10.40
2014,12,09,22,53,10.50
2014,12,09,22,54,10.50
2014,12,09,22,55,10.50
2014,12,09,22,56,10.50
2014,12,09,22,57,10.60
2014,12,09,22,58,10.60
2014,12,09,22,59,10.60
2014,12,09,23,00,10.60
2014,12,09,23,01,10.60
2014,12,09,23,02,10.70
2014,12,09,23,03,10.70
2014,12,09,23,04,10.80
2014,12,09,23,05,10.80
2014,12,09,23,06,10.80
2014,12,09,23,07,10.70
2014,12,09,23,08,10.80
2014,12,09,23,09,10.80
2014,12,09,23,10,10.80
2014,12,09,23,11,10.80
2014,12,09,23,12,10.80
2014,12,09,23,13,10.80
2014,12,09,23,14,10.80
2014,12,09,23,15,10.80
2014,12,09,23,16,10.70
2014,12,09,23,17,10.70
2014,12,09,23,18,10.60
2014,12,09,23,19,10.60
2014,12,09,23,20,10.50
2014,12,09,23,21,10.50
2014,12,09,23,22,10.40
2014,12,09,23,23,10.40
2014,12,09,23,24,10.40
2014,12,09,23,25,10.40
2014,12,09,23,26,10.50
2014,12,09,23,27,10.50
2014,12,09,23,28,10.60
2014,12,09,23,29,10.60
2014,12,09,23,30,10.70
2014,12,09,23,31,10.70
2014,12,09,23,32,10.70
2014,12,09,23,33,10.70
2014,12,09,23,34,10.60
2014,12,09,23,35,10.60
2014,12,09,23,36,10.60
2014,12,09,23,37,10.60
2014,12,09,23,38,10.50
2014,12,09,23,39,10.50
2014,12,09,23,40,10.40
2014,12,09,23,41,10.40
2014,12,09,23,42,10.30
2014,12,09,23,43,10.30
2014,12,09,23,44,10.30
2014,12,09,23,45,10.30
2014,12,09,23,46,10.20
2014,12,09,23,47,10.20
2014,12,09,23,48,10.20
2014,12,09,23,49,10.10
2014,12,09,23,50,10.10
2014,12,09,23,51,10.10
2014,12,09,23,52,10.10
2014,12,09,23,53,10.10
2014,12,09,23,54,10.10
2014,12,09,23,55,10.00
2014,12,09,23,56,10.00
2014,12,09,23,57,10.00
2014,12,09,23,58,10.00
2014,12,09,23,59,10.10
